Back to catalog

OPS 5117

NAVSTAR 5

AliveNavigationHEO
NORAD 11690·PAYLOAD·🇺🇸 United States

Launched Feb 9, 1980 from Vandenberg Space Force Base

Loading…

Next Passes (next 24 hours)

TLE

FreshSource: Space-Track

Epoch: Sep 5, 2026, 20:47 UTC

1 11690U 80011A   26248.86614161  .00000001  00000-0  00000-0 0  9993
2 11690  64.8443  46.1560 0491632 204.9788 337.0068  2.00574775355347

Track OPS 5117 in real time with AllMySat

Download on the App Store